SCOUT A DEB, 3214

Orbit data source: Space-Track

SCOUT A DEB, 3214 is space debris in LEO originally from a launch on Sat, 02 Mar 1968 UTC launched from the Air Force Western Test Range (AFWTR). Debris objects in space refer to the collection of defunct objects orbiting the Earth. Examples of debris include non-operational satellites, rocket bodies, and fragments generated from explosions, collisions, or faulty payload assembly.

Loading next visibility...
Identifier
3214, 1968-012D
Orbit
LEO
Country
Flag of USUS
Related business
Manufacturer
Unknown
Mission
Spacecraft
Bus & Motor
Unknown
Mass
Unknown
Launch date (UTC)
1968-03-02 (59 years ago)
Launch vehicle
Unknown
Launch site
Air Force Western Test Range (AFWTR)
Object type
Payload
Rocket body
Debris
Shape & HBR
Unknown shape, 0.1 m
Radar Cross Section
Medium (>0.1 m² and <1 m²)

Expand to show TLE details & history
Last TLE update: 2 days ago

TLE from 2 days ago
0 SCOUT A DEB
1 03214U 68012D   26256.02469916  .00000109  00000-0  19541-3 0  9998
2 03214  89.8061 101.9333 0186487  13.3844 139.8410 13.29300290596208
Epoch: 2026-09-13T00:35Z
TLE epoch observation values (Epoch: 2026-09-13T00:35:34.007Z)
Latitude
25.44706°
Longitude
-79.07548°
Altitude
1,260.892 km
Speed
7.175 km/s
True Right ascension
18h 47m 21s
True Declination
25° 19' 22"
Sunlit
Object was in daylight at epoch
Visualization orbit readout
Latitude
Unknown
Longitude
Unknown
Altitude
Unknown
Speed
Unknown
Apparent Right ascension
Unknown
Apparent Declination
Unknown
Sunlit
N/A
Visualization observer readout
Local Sidereal Time
04:10:15
Azimuth
Unknown
Elevation
Unknown
Doppler factor
Unknown
Orbital elements
Apogee altitude
1,286.807 km
Perigee altitude
1,006.158 km
Semi-major axis
7,524.619 km
Eccentricity
0.01865
Inclination
89.8061°
RAAN
101.9333°
Arg. of periapsis
13.3844°
True anomaly
141.1949°
Mean anomaly
139.841°
Eccentric anomaly
140.52035°
Mean motion
3.32519 °/min
Orbital period
108.26 mins
BSTAR
0.00019541
Loading maneuver chart data...
Computing Atmospheric mass density...
Loading historical data...
Loading historical data...
Loading historical data...
Loading historical data...
Loading historical data...
Loading historical data...
Loading historical data...

Documentation

Showing up to 5 results
|